Theta_e
325 326 326 325 324 321 318 319 321 320 318 323 322 323 323 321 318 317 320 322 322 321 323 326 326 325 328 330 330 332 332 331 329 328 327 326 326 326 326 327 325 324 324 323
325 327 323 322 323 323 322 322 322 320 319 323 323 324 322 321 318 318 318 319 318 319 319 322 324 326 326 328 330 331 332 332 331 329 328 327 326 326 326 327 327 325 324 323
323 320 322 322 323 324 323 323 322 322 321 322 325 323 322 321 320 320 319 319 318 318 318 317 319 321 325 325 327 330 331 332 332 331 330 329 328 327 327 327 327 327 326 324
323 320 321 322 323 322 325 321 321 322 323 324 321 325 321 319 319 319 319 318 318 318 318 318 319 321 322 323 324 327 330 331 332 332 331 331 329 328 327 327 326 326 327 326
322 321 321 322 322 321 323 319 320 321 323 322 321 322 320 318 318 318 318 318 318 317 318 319 319 321 321 321 323 324 328 329 329 331 332 331 331 330 329 327 327 326 326 327
320 317 318 319 320 320 319 320 320 320 321 323 319 320 318 317 316 315 317 316 316 317 317 318 317 317 318 319 320 321 322 323 325 328 330 332 332 331 331 330 329 327 326 326
319 319 319 318 321 321 321 321 323 322 323 321 317 320 317 315 313 313 313 314 315 316 315 313 310 314 316 317 314 314 314 316 319 320 320 324 331 332 331 331 330 329 327 326
322 323 319 318 320 322 322 320 318 317 319 316 314 315 313 315 315 314 315 315 316 314 312 310 311 312 310 312 312 313 313 312 312 313 314 316 319 328 331 332 331 331 330 329
320 320 317 317 317 319 322 322 316 318 310 315 315 314 313 314 313 312 314 313 313 311 311 311 311 311 311 311 311 311 310 311 311 310 310 311 312 316 323 330 331 331 331 330
317 319 318 317 317 316 318 317 320 320 318 316 314 314 313 314 313 312 312 311 311 310 312 311 311 311 310 311 310 310 310 311 311 311 311 311 310 312 313 318 327 330 330 330
316 316 318 316 318 320 319 320 318 317 317 316 314 311 309 310 309 310 310 311 311 311 311 309 306 308 309 308 308 309 310 311 311 311 311 311 310 310 311 313 316 322 327 329
317 318 316 318 314 314 317 318 317 320 318 316 316 314 311 311 311 310 310 311 310 311 308 305 305 306 307 308 309 309 309 309 310 310 310 310 310 310 310 312 314 316 321 325
315 316 317 315 313 312 317 318 317 317 315 317 314 315 311 310 308 307 309 309 308 308 307 305 303 304 306 307 308 308 308 308 308 309 309 308 309 310 309 309 311 314 317 321
313 313 314 314 314 313 316 316 317 318 320 317 315 312 311 309 307 307 308 307 306 307 305 303 302 303 305 305 306 307 306 306 306 307 306 307 307 308 308 309 309 311 313 317
311 316 311 312 308 313 313 315 317 317 317 317 315 314 311 310 308 306 306 306 308 307 305 303 303 300 303 304 306 305 305 305 305 305 304 304 305 306 306 306 308 308 310 313
311 315 311 310 311 307 310 311 314 315 315 314 313 312 311 310 309 307 305 306 306 306 304 303 303 301 302 304 305 304 304 305 304 302 302 302 302 303 303 303 304 305 307 310
310 313 314 316 312 310 310 308 309 311 313 313 314 313 311 310 310 307 307 306 305 304 304 302 301 300 302 305 305 303 303 302 300 300 301 300 301 301 301 301 302 302 304 307
310 312 311 309 311 312 309 307 307 307 308 309 310 310 310 310 309 307 306 306 306 305 303 302 300 300 301 303 304 303 301 299 298 299 299 300 300 299 298 298 299 300 301 303
310 309 309 307 305 305 307 303 305 307 307 306 306 308 308 308 306 306 307 306 306 304 303 302 302 301 301 300 302 302 301 299 298 298 298 299 298 298 297 296 297 298 298 299
309 309 310 305 308 303 302 304 301 302 304 303 305 306 305 305 306 306 306 304 303 303 303 302 301 300 301 300 301 302 300 299 298 297 297 298 298 296 295 294 295 295 296 297
310 310 311 307 304 302 302 301 301 301 303 301 302 304 304 305 305 304 304 304 303 303 303 301 300 299 300 300 300 299 299 298 297 297 297 297 296 295 294 294 294 294 294 295
309 309 309 309 310 309 299 300 302 302 301 300 301 301 302 304 303 303 302 302 302 301 300 299 299 299 299 299 298 298 298 296 296 297 296 295 295 294 293 293 294 294 294 294
306 305 305 306 305 301 298 299 300 300 301 303 303 303 302 303 304 303 302 303 301 299 296 297 297 297 297 297 297 298 297 296 296 296 295 294 294 292 292 293 293 293 294 295
302 303 302 302 302 301 299 298 299 299 300 301 301 300 300 300 300 299 297 296 295 296 295 296 296 295 294 295 296 296 296 296 296 295 293 292 292 291 291 292 293 293 294 295
302 302 301 299 301 301 300 299 298 299 297 292 293 294 294 294 293 294 293 292 292 293 293 294 293 292 292 293 293 293 294 295 294 293 292 291 290 290 291 292 293 293 294 295
300 301 302 301 296 300 296 288 287 290 287 287 287 287 286 286 286 287 287 288 289 289 290 290 290 290 290 291 291 292 292 293 292 291 290 290 290 290 290 291 292 293 294 295
Wind_Speed
9 6 14 13 13 11 9 8 3 8 8 8 9 10 14 15 10 10 9 9 9 9 13 14 21 20 17 25 25 28 31 33 33 33 32 31 34 33 34 34 36 34 34 34
6 16 12 12 13 13 11 10 7 9 4 2 7 13 13 15 14 9 10 9 9 8 8 16 21 22 25 24 28 27 29 31 35 33 32 31 30 31 34 34 33 36 36 37
17 4 15 12 11 14 13 11 8 6 5 5 5 19 19 14 21 19 13 12 8 9 9 9 12 17 23 27 28 29 29 29 32 33 28 28 28 28 31 34 37 40 40 41
13 16 17 15 18 12 14 6 5 2 3 4 4 7 9 8 9 18 18 10 9 9 10 11 12 18 23 16 28 27 28 30 30 31 30 30 30 30 36 33 35 36 41 45
8 14 17 17 17 14 7 8 9 6 5 5 7 8 4 7 10 11 6 10 10 10 8 7 7 4 5 8 3 7 20 26 28 31 35 34 31 31 31 28 31 37 39 45
12 2 12 14 11 10 8 7 7 4 2 8 7 9 5 9 11 6 4 8 8 5 3 4 13 14 11 9 7 7 9 13 17 20 29 35 33 32 30 30 31 34 37 39
5 1 2 4 9 7 11 10 2 2 4 7 11 11 15 11 10 6 6 4 2 5 8 8 8 8 6 4 5 6 6 8 12 17 23 23 33 35 34 33 31 30 30 34
12 9 9 6 7 8 17 13 5 8 5 3 8 8 6 5 5 5 2 5 5 7 7 8 7 7 5 3 8 10 10 11 12 14 18 21 26 29 34 36 35 34 34 34
13 11 5 5 6 13 11 17 9 2 1 1 5 6 9 6 6 7 6 5 6 9 6 6 5 4 4 5 7 9 12 15 17 18 20 20 22 26 31 35 36 37 37 38
7 6 5 7 2 9 10 7 6 4 5 5 5 6 6 2 5 4 7 9 9 8 6 2 3 5 6 5 8 11 11 15 18 21 21 21 23 25 28 33 35 37 38 39
11 7 3 6 10 12 7 13 8 5 7 5 2 5 10 13 3 5 2 9 9 7 5 1 4 7 8 9 12 14 16 17 18 21 23 24 25 27 29 31 35 36 38 39
13 3 4 12 2 4 18 9 19 8 8 5 3 6 7 4 4 2 9 8 7 5 2 3 4 5 8 10 11 14 15 18 20 22 25 26 26 27 28 30 32 35 38 39
11 6 5 4 2 4 7 14 16 18 3 8 5 9 13 11 3 5 11 8 8 7 1 1 1 2 6 10 12 14 16 20 22 24 25 28 28 29 30 32 32 33 36 40
13 5 10 13 13 9 12 19 18 19 14 17 10 9 14 11 8 8 8 9 7 3 2 1 3 4 6 8 10 12 17 19 22 23 28 28 29 31 32 33 33 35 36 37
9 14 6 4 4 11 14 18 26 23 24 16 24 20 21 21 13 8 9 7 6 6 6 4 2 2 5 7 6 11 15 18 20 26 27 29 30 30 31 33 34 35 35 37
10 6 6 3 4 7 3 11 19 26 27 22 18 16 20 24 9 8 9 8 8 8 8 7 7 4 6 7 7 10 14 15 21 27 29 30 32 31 31 34 34 35 34 34
11 8 7 9 10 4 2 22 17 13 19 23 20 26 23 22 20 11 4 7 10 9 8 8 8 6 7 8 9 12 14 19 24 25 26 31 32 34 37 37 35 35 34 33
9 9 3 3 9 6 8 9 21 19 17 21 22 21 22 22 22 6 11 13 7 9 9 7 8 7 8 10 12 16 16 25 31 31 31 27 29 36 38 38 37 38 33 32
8 5 3 4 3 8 12 4 9 14 22 22 22 23 23 22 8 14 17 7 16 9 9 15 15 8 9 11 18 16 20 27 31 35 35 32 32 35 38 36 36 37 35 31
3 8 5 2 4 10 4 12 15 5 19 10 17 25 27 17 8 18 4 7 10 10 10 15 11 7 10 15 18 19 25 26 32 36 38 37 37 38 33 34 35 34 31 34
6 5 13 8 6 7 6 3 10 9 5 6 11 19 15 10 12 3 5 3 3 8 9 4 8 11 13 18 21 24 25 25 36 37 40 42 39 39 40 41 34 32 30 31
10 10 6 6 9 19 8 12 19 8 3 3 1 0 2 2 2 1 6 7 5 1 5 10 11 15 20 22 25 30 28 35 37 37 39 44 45 42 38 39 39 32 29 28
6 8 6 11 7 2 8 6 9 4 4 2 3 5 8 7 5 5 3 2 3 2 6 16 21 26 27 27 26 31 35 37 37 39 39 39 41 38 36 36 36 30 26 25
5 7 4 4 5 6 7 5 5 5 3 2 2 3 3 1 2 4 5 6 6 9 12 19 22 22 24 27 30 36 40 39 38 38 35 34 33 37 35 33 30 26 26 25
5 9 6 3 4 3 6 6 5 5 9 12 10 8 10 8 5 3 4 6 6 8 12 17 20 22 26 30 34 34 35 35 38 35 35 31 30 31 31 29 30 29 32 29
3 5 7 3 4 4 6 8 15 11 11 10 9 9 8 7 8 7 7 9 11 13 18 20 23 28 32 31 34 32 32 31 34 32 30 29 31 31 30 30 33 31 36 37
Wind_Direction
202 194 205 192 215 220 258 232 277 234 261 188 232 254 262 274 264 247 247 228 233 245 263 256 225 234 232 219 219 215 211 210 209 210 212 216 218 219 221 222 221 219 220 223
175 224 205 216 203 232 234 251 252 288 271 69 305 281 282 281 269 236 243 245 239 245 247 244 248 225 221 225 221 220 219 214 212 211 214 216 217 220 222 222 224 222 220 222
205 189 213 211 217 202 223 233 238 253 342 299 293 279 254 237 249 259 244 238 240 246 263 266 265 260 231 220 223 223 222 222 220 217 217 221 225 229 228 225 225 222 221 222
226 223 199 210 214 204 223 202 264 295 328 247 90 287 294 317 262 240 248 221 231 238 249 249 252 268 279 252 232 228 225 223 225 224 218 219 219 222 227 226 226 223 223 225
201 186 205 207 214 200 215 188 217 232 246 310 252 283 254 205 263 273 226 188 200 222 227 248 256 278 6 359 11 247 235 231 230 227 225 222 226 231 237 237 236 229 225 226
212 100 203 213 194 202 124 94 55 61 42 256 187 218 221 223 231 231 204 185 200 226 185 66 52 35 18 5 356 340 298 267 255 252 240 232 229 232 237 239 239 233 227 226
225 245 298 176 172 154 144 141 141 203 201 239 170 202 241 282 314 293 294 326 349 95 77 69 49 37 23 46 18 342 318 292 277 270 264 263 242 236 239 243 244 241 232 226
184 206 210 192 202 178 180 175 169 183 201 242 189 236 229 136 53 49 90 84 75 42 76 88 84 63 40 358 345 340 324 306 307 297 293 283 267 260 245 244 245 244 242 237
188 221 178 189 194 152 186 216 198 70 12 32 209 263 313 266 294 280 207 244 169 97 94 88 85 58 319 309 327 320 312 300 302 304 304 299 291 277 266 253 248 248 248 246
180 201 183 189 183 227 186 148 180 190 201 233 242 239 238 146 200 190 168 119 110 114 123 142 236 278 349 335 327 318 307 313 313 312 304 299 302 295 288 276 261 250 250 250
215 194 196 132 206 180 192 198 206 162 226 201 219 236 191 222 138 161 153 126 127 149 173 230 12 12 9 1 350 343 334 329 326 325 317 305 301 301 298 290 277 266 259 253
202 134 163 201 45 265 213 210 201 201 203 239 279 251 297 297 326 192 132 126 138 175 146 43 12 10 9 350 345 334 338 333 332 330 327 318 307 301 300 300 291 279 268 261
157 201 133 115 30 304 213 221 215 224 236 197 185 248 244 289 326 268 141 157 187 191 114 35 340 64 5 350 339 339 340 339 335 335 331 325 316 306 297 296 296 290 281 272
154 169 214 198 212 130 203 221 224 213 219 225 222 251 260 249 230 147 170 188 175 179 195 78 360 17 331 335 333 342 335 335 338 336 328 323 321 319 312 302 297 295 288 281
154 203 208 264 26 191 196 201 208 210 219 211 225 223 245 255 238 206 198 150 158 221 224 212 205 274 290 312 330 329 330 329 333 333 328 326 323 323 322 315 305 301 296 287
174 231 176 204 28 345 231 200 212 216 223 227 237 237 238 256 241 231 219 175 203 217 200 202 198 237 281 284 306 317 323 323 323 321 325 327 330 326 321 323 320 308 301 293
159 176 171 223 157 146 272 232 218 227 228 223 225 235 240 249 258 244 264 247 234 203 208 202 196 206 270 276 294 311 316 315 317 315 314 323 328 326 327 323 316 310 304 298
147 182 161 143 138 211 236 188 208 217 230 228 241 246 241 244 256 248 230 235 219 218 203 201 186 197 260 279 291 303 307 319 324 317 314 315 318 322 324 324 318 314 305 296
168 135 139 162 204 312 280 189 178 197 241 232 233 240 247 252 267 262 255 235 247 221 208 204 188 210 255 292 288 284 304 315 319 315 315 313 312 316 318 315 313 314 305 297
90 183 179 129 202 218 345 206 168 133 260 181 219 235 239 240 214 252 199 237 237 226 192 168 183 239 257 276 287 281 301 308 310 311 311 311 312 313 308 307 308 309 302 293
162 173 205 197 230 271 203 135 123 157 249 212 213 231 243 226 230 185 135 113 128 147 152 198 264 264 272 278 283 286 288 291 305 310 310 310 306 309 312 310 305 306 300 292
166 169 191 197 221 251 170 148 176 206 195 187 311 311 214 170 92 58 187 172 153 213 285 286 279 276 277 279 285 283 279 299 302 301 302 303 302 303 303 305 304 302 302 290
198 185 180 189 215 253 183 186 208 123 170 179 110 50 42 35 21 4 354 347 341 342 294 297 298 289 281 279 271 267 279 293 291 291 293 293 297 297 296 295 296 299 299 290
227 212 184 96 228 197 222 253 276 256 19 64 87 100 109 189 359 319 307 295 290 288 285 287 280 273 271 278 277 278 287 287 284 281 285 285 285 288 286 282 278 280 285 286
185 143 175 271 310 350 237 236 322 324 40 36 17 25 25 21 16 2 316 289 281 287 298 296 287 281 279 285 282 280 279 276 275 272 279 278 280 280 279 274 276 274 272 268
197 168 188 178 1 231 66 42 20 46 32 35 23 360 5 9 329 316 302 299 302 303 304 300 291 288 290 291 288 287 284 276 269 268 271 277 281 281 281 283 286 275 272 275